Content
SEND FEEDBACK

Daily
Averages
Monthly
Summary
United States of America

VINTON, IOWA


Home > North America > United States > Iowa
Elevation: 821 feet     Latitude: 42 10N     Longitude: 092 00W

WEATHER
 
SELECT A DAY
Number of Records: 281,808;   Date Range: 6/5/02 - 9/3/14
 
SHARE

PRINT THIS DATA

[ ← Previous Day ]
WEATHER ALMANAC - FEBRUARY 5, 2013
[ Next Day → ]
[ °C ]   °F
Weather ElementAverageHighLow
Temperature25.4 °F34.9 °F (1:15 pm)15.3 °F (12:35 am)
Dewpoint19.3 °F27.1 °F (1:15 pm)10.8 °F (12:55 am)
Humidity78.1 %85 % (6:55 am)66 % (1:55 pm)
Barometer29.91 in30.12 in (11:35 pm)29.79 in (9:15 am)
Wind Speed9.8 mph18.4 mph (3:15 pm)
Wind Gust24.2 mph (4:35 pm)
Weather ElementAverage
Visibility9 mi
Wind DirectionW (268.5 °)

Weather ElementTotal
Precipitation---
Heating Degree Days39.9 (Base 65)
Averaged from 71 records on February 5, 2013
WEATHER CONDITIONS BREAKOUT
WIND DIRECTION BREAKOUT
WEATHER BY HOUR - FEBRUARY 5, 2013
[ °C ]   °F
Local TimeTemperatureDewpointHumidityBarometerVisibilityWind DirectionWind SpeedGust SpeedPrecipitationEventsConditions
12:35 AM15.3 °F10.9 °F83 %29.92 in10.0 miSouth (170°)5.8 mphClear
12:55 AM15.4 °F10.8 °F82 %29.91 in10.0 miSSW (210°)4.6 mphClear
1:15 AM17.6 °F13.1 °F83 %29.91 in10.0 miSSW (200°)5.8 mphClear
1:35 AM17.6 °F12.9 °F82 %29.91 in10.0 miSSW (200°)9.2 mphClear
1:55 AM17.6 °F13.1 °F83 %29.90 in5.0 miSouth (180°)5.8 mphSnowLight Snow
2:15 AM17.6 °F13.1 °F83 %29.89 in7.0 miSSW (200°)5.8 mphMostly Cloudy
2:35 AM17.6 °F13.1 °F83 %29.88 in4.0 miSouth (190°)6.9 mphSnowLight Snow
2:55 AM17.6 °F13.1 °F83 %29.87 in7.0 miSouth (190°)11.5 mphScattered Clouds
3:15 AM17.6 °F13.1 °F83 %29.86 in10.0 miSouth (190°)10.4 mphScattered Clouds
3:35 AM17.6 °F13.1 °F83 %29.85 in10.0 miSouth (190°)11.5 mphMostly Cloudy
3:55 AM17.6 °F13.1 °F83 %29.84 in10.0 miSouth (190°)9.2 mphScattered Clouds
4:15 AM17.6 °F13.6 °F84 %29.84 in10.0 miSouth (190°)8.1 mphClear
4:35 AM17.6 °F13.5 °F84 %29.84 in10.0 miSouth (190°)8.1 mphClear
4:55 AM18.1 °F14.0 °F84 %29.83 in10.0 miSouth (190°)6.9 mphClear
5:15 AM18.5 °F14.4 °F84 %29.81 in10.0 miSouth (190°)9.2 mphClear
5:35 AM19.0 °F14.7 °F83 %29.81 in7.0 miSouth (190°)10.4 mphClear
5:55 AM19.0 °F14.5 °F83 %29.81 in10.0 miSouth (180°)8.1 mphClear
6:15 AM19.0 °F14.7 °F83 %29.81 in10.0 miSSW (200°)5.8 mphClear
6:35 AM18.5 °F14.4 °F84 %29.81 in10.0 miSouth (190°)10.4 mphClear
6:55 AM17.6 °F13.8 °F85 %29.81 in7.0 miSouth (190°)9.2 mphClear
7:15 AM17.6 °F13.8 °F85 %29.80 in7.0 miSouth (190°)9.2 mphClear
7:35 AM17.6 °F13.8 °F85 %29.81 in7.0 miSSW (200°)6.9 mphClear
7:55 AM17.6 °F13.6 °F84 %29.80 in7.0 miSSW (200°)10.4 mphClear
8:15 AM18.1 °F13.8 °F83 %29.81 in7.0 miSSW (210°)9.2 mphClear
8:35 AM19.0 °F14.7 °F83 %29.80 in7.0 miSSW (200°)8.1 mphClear
8:55 AM20.3 °F15.4 °F81 %29.81 in7.0 miSW (220°)6.9 mphClear
9:15 AM21.6 °F16.5 °F81 %29.79 in7.0 miSSW (210°)10.4 mphClear
9:35 AM23.0 °F17.6 °F80 %29.81 in7.0 miWSW (250°)9.2 mphClear
9:55 AM25.2 °F19.2 °F78 %29.80 in7.0 miWest (260°)10.4 mphClear
10:15 AM27.5 °F21.4 °F78 %29.81 in10.0 miWSW (250°)11.5 mphClear
10:35 AM27.5 °F20.8 °F76 %29.82 in10.0 miWest (280°)10.4 mphClear
10:55 AM29.3 °F22.8 °F77 %29.83 in7.0 miWNW (300°)9.2 mphScattered Clouds
11:15 AM29.8 °F23.4 °F77 %29.84 in10.0 miWNW (300°)15.0 mphOvercast
11:35 AM28.9 °F23.4 °F80 %29.85 in7.0 miWNW (300°)10.4 mphMostly Cloudy
11:55 AM30.2 °F24.6 °F80 %29.85 in7.0 miWNW (300°)11.5 mphMostly Cloudy
12:15 PM32.4 °F26.4 °F79 %29.85 in7.0 miNW (310°)13.8 mph18.4 mphMostly Cloudy
12:35 PM32.4 °F26.1 °F78 %29.85 in7.0 miWNW (300°)12.7 mph21.9 mphScattered Clouds
12:55 PM32.5 °F25.9 °F76 %29.85 in10.0 miWNW (300°)13.8 mphScattered Clouds
1:15 PM34.9 °F27.1 °F73 %29.86 in10.0 miNW (310°)17.3 mph20.7 mphClear
1:35 PM34.9 °F26.4 °F71 %29.87 in10.0 miNW (310°)13.8 mph18.4 mphScattered Clouds
1:55 PM34.9 °F24.6 °F66 %29.87 in10.0 miNNW (330°)15.0 mph23.0 mphScattered Clouds
2:15 PM34.9 °F24.8 °F67 %29.88 in10.0 miNNW (330°)10.4 mphScattered Clouds
2:35 PM34.9 °F25.3 °F68 %29.89 in10.0 miNW (320°)9.2 mph16.1 mphOvercast
2:55 PM34.9 °F25.5 °F69 %29.91 in10.0 miNW (320°)6.9 mphMostly Cloudy
3:15 PM34.9 °F25.3 °F68 %29.92 in10.0 miWNW (300°)18.4 mph21.9 mphOvercast
3:35 PM34.9 °F26.1 °F70 %29.93 in10.0 miWNW (300°)12.7 mphOvercast
3:55 PM34.9 °F25.9 °F70 %29.94 in10.0 miWNW (300°)13.8 mph23.0 mphOvercast
4:15 PM34.9 °F26.2 °F71 %29.95 in10.0 miNW (310°)13.8 mph21.9 mphOvercast
4:35 PM34.5 °F25.2 °F69 %29.96 in10.0 miNW (310°)16.1 mph24.2 mphOvercast
4:55 PM33.8 °F24.8 °F70 %29.96 in10.0 miNW (310°)15.0 mph19.6 mphOvercast
5:15 PM32.9 °F25.2 °F73 %29.97 in10.0 miNW (310°)15.0 mphOvercast
5:35 PM32.4 °F23.4 °F69 %29.98 in10.0 miNW (310°)16.1 mph23.0 mphOvercast
5:55 PM32.4 °F23.7 °F70 %29.99 in10.0 miNW (310°)11.5 mph18.4 mphMostly Cloudy
6:15 PM32.4 °F25.0 °F74 %30.00 in10.0 miNW (320°)10.4 mph17.3 mphMostly Cloudy
6:35 PM32.4 °F24.4 °F73 %30.00 in10.0 miNNW (330°)12.7 mph19.6 mphMostly Cloudy
6:55 PM32.4 °F24.8 °F74 %30.01 in10.0 miNNW (330°)8.1 mphScattered Clouds
7:15 PM32.4 °F25.5 °F76 %30.01 in10.0 miNW (320°)6.9 mphMostly Cloudy
7:35 PM31.6 °F24.1 °F74 %30.02 in10.0 miNorth (350°)8.1 mph18.4 mphScattered Clouds
7:55 PM30.2 °F22.6 °F73 %30.03 in10.0 miNNW (340°)10.4 mphClear
8:15 PM27.5 °F19.9 °F73 %30.04 in10.0 miNNW (340°)8.1 mphClear
8:35 PM27.5 °F21.0 °F77 %30.05 in10.0 miNorth (350°)9.2 mphClear
8:55 PM27.5 °F20.7 °F75 %30.06 in10.0 miNNW (340°)10.4 mphClear
9:15 PM27.5 °F21.0 °F77 %30.08 in10.0 miNNW (340°)8.1 mphClear
9:35 PM25.2 °F18.5 °F76 %30.08 in10.0 miNNW (340°)8.1 mphClear
9:55 PM25.2 °F19.0 °F78 %30.08 in10.0 miNNW (340°)6.9 mphClear
10:15 PM25.0 °F19.2 °F79 %30.09 in10.0 miNW (320°)5.8 mphClear
10:35 PM22.6 °F17.6 °F81 %30.10 in10.0 miNNW (330°)5.8 mphClear
10:55 PM22.6 °F17.6 °F81 %30.11 in10.0 miNNW (330°)5.8 mphClear
11:15 PM21.6 °F17.1 °F83 %30.11 in10.0 miNW (310°)3.5 mphClear
11:35 PM19.4 °F15.6 °F85 %30.12 in7.0 miNW (310°)4.6 mphClear
11:55 PM20.3 °F16.5 °F85 %30.12 in10.0 miNNW (340°)4.6 mphClear
Hourly data recorded from KVTI, located miles away from Vinton, Iowa







STORIES FROM OUR PARTNERS